Weather observations for the past three days for
Volk / Camp Douglas
Imperial (Metric)
Date Time (cdt) Wind (mph) Vis. (mi.) Weather Sky Cond. Temperature (ºF) Relative Humidity Wind Chill (°F) Heat Index (°F) Pressure Precipitation (in)
Air Dwpt 6 hour altimeter (in) sea level (mb) 1 hr 3 hr 6 hr
Max. Min.
20 19:55 W 6 10.00 Fair CLR 73.8 63.7 71% 30.07 1018.2
20 18:55 W 5 10.00 Fair CLR 78.4 63 81.3 77.4 59% 80 30.06 1018.0
20 17:55 SW 8 10.00 Fair CLR 80.1 60.8 52% 81 30.05 1017.6
20 15:55 W 5 10.00 Mostly Cloudy BKN055 78.4 60.4 54% 80 30.08 1018.6
20 14:55 W 6 10.00 Mostly Cloudy BKN050 BKN060 78.3 61.2 56% 80 30.09 1019.0
20 13:55 SW 5 10.00 A Few Clouds FEW055 78.4 58.8 51% 80 30.09 1019.0
20 12:55 W 7 10.00 Mostly Cloudy BKN055 78.1 60.1 79.2 57.9 54% 79 30.1 1019.3
20 11:55 NW 5 10.00 A Few Clouds FEW039 FEW190 78.1 60.6 55% 80 30.11 1019.6
20 10:55 SW 8 10.00 A Few Clouds FEW160 FEW210 75.9 60.4 59% 78 30.11 1019.7
20 09:55 W 5 10.00 Fair CLR 75.2 62.1 64% 77 30.11 1019.6
20 08:55 W 3 10.00 Fair CLR 72 61.2 69% 30.11 1019.7
20 07:55 Calm 10.00 Mostly Cloudy BKN050 BKN070 67.5 61.3 81% 30.12 1019.9
20 06:55 Calm 10.00 A Few Clouds FEW070 57.7 56.8 58.6 54 97% 30.11 1019.7
20 05:55 Calm 3.00 Fog/Mist CLR 55.2 53.8 95% 30.1 1019.4
20 04:55 Calm 1.13 Fog/Mist CLR 55.4 54.3 96% 30.09 1019.0
20 03:55 Calm 10.00 Fair CLR 56.8 55.4 95% 30.08 1018.6
20 02:55 Calm 10.00 Fair CLR 58.1 56.3 94% 30.07 1018.3
20 01:55 SE 3 10.00 Fair CLR 58.6 56.7 93% 30.08 1018.6
20 00:55 Calm 9.00 Fair CLR 58.1 56.7 76.5 58.1 95% 30.09 1019.0
19 23:55 Calm 10.00 Fair CLR 59.4 57.9 95% 30.09 1019.0
19 22:55 Calm 10.00 Fair CLR 61.7 59 91% 30.09 1019.0
19 21:55 Calm 10.00 Fair CLR 64.9 59.5 83% 30.09 1018.9
19 20:55 Calm 10.00 Fair CLR 66 59.4 79% 30.07 1018.3
19 19:55 SW 3 10.00 Fair CLR 70.9 59 66% 30.07 1018.3
19 18:55 SW 8 10.00 Fair CLR 76.3 57.9 79.5 74.7 53% 78 30.07 1018.4
19 17:55 SW 6 10.00 A Few Clouds FEW050 77.9 55.9 47% 79 30.08 1018.8
19 16:55 S 9 10.00 Mostly Cloudy BKN055 79.3 56.7 46% 80 30.08 1018.8
19 15:55 Calm 10.00 A Few Clouds FEW055 FEW190 77.5 52 41% 79 30.1 1019.4
19 14:55 S 7 10.00 Partly Cloudy SCT050 SCT070 77.9 54.9 45% 79 30.11 1019.8
19 13:55 W 7 10.00 Mostly Cloudy BKN050 BKN065 77 57.4 51% 79 30.13 1020.5
19 12:55 W 6 10.00 Mostly Cloudy BKN049 BKN060 74.5 56.1 76.6 56.8 53% 30.14 1020.8
19 11:55 S 3 10.00 Partly Cloudy SCT047 74.3 56.5 54% 30.14 1020.8
19 10:55 W 7 10.00 A Few Clouds FEW040 74.8 56.5 53% 30.15 1021.1
19 09:55 W 6 10.00 A Few Clouds FEW055 FEW150 73.2 57.9 59% 30.17 1021.8
19 08:55 W 5 10.00 A Few Clouds FEW055 FEW150 71.1 58.6 65% 30.18 1022.0
19 07:55 Calm 10.00 A Few Clouds FEW055 64.4 58.8 82% 30.18 1022.1
19 06:55 E 3 10.00 A Few Clouds FEW055 56.7 54.9 56.7 48.6 94% 30.17 1021.8
19 05:55 Calm 1.75 Fog/Mist CLR 49.6 48.6 96% 30.17 1021.9
19 04:55 Calm 0.63 Fog/Mist CLR 48.9 47.8 96% 30.16 1021.6
19 03:55 Calm 9.00 Fair CLR 50.9 49.8 96% 30.15 1021.1
19 02:55 Calm 0.38 Fog CLR 50.2 49.1 96% 30.15 1021.2
19 01:55 Calm 2.75 Fog/Mist CLR 53.2 52.2 96% 30.14 1020.9
19 00:55 Calm 10.00 Fair CLR 54.9 53.2 73 53.4 94% 30.15 1021.2
18 23:55 Calm 6.00 Fog/Mist CLR 53.8 52.3 95% 30.15 1021.2
18 22:55 Calm 10.00 Fair CLR 58.1 55.4 91% 30.15 1021.1
18 21:55 Calm 10.00 Fair CLR 59.4 56.5 90% 30.16 1021.5
18 20:55 Calm 10.00 Fair CLR 62.8 56.1 79% 30.14 1020.8
18 19:55 W 6 10.00 Fair CLR 69.3 57 65% 30.14 1020.8
18 18:55 W 7 10.00 A Few Clouds FEW060 73.2 54.5 76.3 71.2 52% 30.15 1021.2
18 17:55 W 7 10.00 Partly Cloudy SCT060 75.2 54.1 48% 78 30.16 1021.6
18 16:55 W 3 10.00 A Few Clouds FEW055 72.9 55.2 54% 30.17 1022.0
18 15:55 W 7 10.00 Mostly Cloudy BKN050 75.7 52.3 44% 78 30.18 1022.2
18 14:55 W 7 10.00 Mostly Cloudy BKN060 75.2 52.3 45% 78 30.18 1022.2
18 13:55 NW 8 10.00 Mostly Cloudy BKN060 72.7 52.3 49% 30.19 1022.7
18 12:55 W 5 10.00 Mostly Cloudy BKN060 71.6 49.6 73.6 52 46% 30.2 1023.0
18 11:55 NW 6 10.00 Mostly Cloudy BKN050 72.1 52.5 50% 30.21 1023.3
18 10:55 NW 5 10.00 Mostly Cloudy BKN045 69.3 51.4 53% 30.21 1023.3
18 09:55 W 5 10.00 A Few Clouds FEW030 68.9 54.9 61% 30.2 1022.9
18 08:55 W 3 10.00 A Few Clouds FEW003 64.4 56.7 76% 30.21 1023.3
18 07:55 NW 5 10.00 Fair CLR 58.6 55.4 89% 30.21 1023.3
18 06:55 W 3 10.00 A Few Clouds FEW060 51.8 50.9 51.8 44.4 97% 30.21 1023.3
Date Time (cdt) Wind (mph) Vis. (mi.) Weather Sky Cond. Air Dwpt Max. Min. Relative Humidity Wind Chill (°F) Heat Index (°F) altimeter (in) sea level (mb) 1 hr 3 hr 6 hr
6 hour
Temperature (ºF) Pressure Precipitation (in)